Wind_Speed
18 21 25 25 24 23 22 26 25 20 19 15 14 15 16 16 16 16 18 16 19 18 13 14 13 11 10 10 10 9 8 7
19 23 24 25 25 25 22 26 28 19 19 17 16 17 17 18 17 18 18 17 19 19 14 15 14 13 13 14 12 11 8 8
23 23 24 23 24 25 25 26 24 22 18 18 17 16 18 18 18 21 21 18 18 19 17 16 15 15 16 16 14 10 9 9
26 26 27 26 27 27 27 26 24 21 20 16 16 15 16 19 19 18 23 21 20 21 19 18 17 17 17 17 17 15 11 10
26 28 29 30 29 27 27 26 26 26 22 21 20 19 20 18 21 22 23 22 21 21 20 20 21 18 17 17 16 15 15 13
27 29 30 29 28 29 29 28 27 25 25 24 22 19 17 17 19 20 21 18 23 23 22 23 23 19 17 18 17 18 16 17
27 27 27 29 30 30 31 30 29 28 27 25 24 22 20 21 22 22 19 20 20 24 25 26 25 26 23 21 23 21 20 18
27 28 29 29 30 31 33 31 32 31 30 30 26 28 24 26 28 26 23 21 24 27 28 28 28 28 25 26 25 24 19 19
30 30 30 30 30 30 31 31 31 31 32 34 30 32 30 26 24 25 30 33 37 31 30 27 27 28 30 27 26 22 20 19
31 32 31 30 29 30 33 30 28 28 34 37 30 36 33 26 26 30 31 31 31 31 28 27 27 30 29 28 25 23 20 16
16 22 29 30 28 27 29 27 27 29 36 34 35 36 31 27 26 24 19 29 29 27 26 26 26 29 30 27 26 21 17 11
6 11 15 19 22 24 25 25 25 26 27 21 28 32 24 21 21 17 19 24 24 23 26 28 27 28 28 26 21 17 16 19
5 8 10 13 16 20 22 22 23 23 24 20 25 26 21 23 20 18 20 20 20 22 22 25 24 27 24 22 20 17 21 18
6 8 9 11 13 15 16 17 18 18 18 17 19 19 19 20 20 20 19 18 21 20 21 22 27 24 22 23 20 24 23 22
9 10 11 12 13 14 14 14 15 16 16 16 14 15 17 15 14 14 13 13 16 17 18 21 22 20 21 25 23 24 20 27
11 12 13 13 13 13 14 13 13 13 13 12 12 10 8 6 3 4 6 8 10 12 13 16 18 19 22 22 22 18 26 31
9 12 13 13 13 14 14 13 12 11 13 11 10 9 8 9 9 8 6 6 8 7 8 8 10 13 15 22 17 21 31 30
12 13 13 14 13 13 14 14 14 14 14 13 12 10 9 8 6 4 3 2 2 2 3 5 7 7 13 15 22 26 27 27
15 16 17 17 17 17 17 16 16 15 15 13 11 10 8 7 7 6 5 4 2 1 2 4 8 12 15 19 20 22 21 20
Wind_Direction
158 151 157 158 162 169 166 185 182 185 188 194 203 204 201 203 207 213 223 214 226 224 213 214 225 210 213 213 204 205 213 224
169 172 174 176 182 182 187 189 194 200 194 198 200 204 202 205 209 212 221 216 230 229 215 224 221 216 216 208 210 212 219 237
186 188 187 190 190 192 194 195 199 205 205 200 208 208 209 209 213 218 214 218 223 225 214 229 228 217 212 219 208 207 214 232
192 194 196 197 197 195 197 200 205 208 210 211 213 211 214 212 216 222 231 222 222 223 222 220 225 214 218 223 223 220 222 231
194 197 201 203 203 204 206 209 212 214 207 211 209 212 212 215 221 231 222 221 226 225 223 226 227 219 217 224 225 227 221 225
196 201 204 205 205 205 206 207 208 209 212 211 214 219 222 225 227 231 238 227 229 227 226 226 231 225 219 224 223 230 234 239
202 203 204 206 206 206 208 208 210 210 212 212 215 216 226 240 234 222 225 228 235 234 228 240 241 235 226 231 232 239 246 253
203 204 204 207 207 208 208 210 210 211 210 212 221 224 228 232 248 221 231 233 244 239 233 244 239 238 230 235 239 246 249 265
213 210 208 208 209 210 212 214 214 214 210 215 225 234 231 254 243 258 259 258 254 245 241 248 247 236 236 239 243 243 257 260
217 219 216 216 213 211 213 215 217 217 219 213 225 237 232 253 247 251 259 257 248 252 248 250 242 239 239 245 241 248 256 253
222 222 221 220 220 216 214 215 217 216 224 223 218 222 234 243 248 254 250 240 251 250 249 248 244 239 242 241 240 249 245 216
180 202 211 215 217 214 213 215 216 215 217 227 212 218 235 247 245 255 242 242 248 246 242 238 234 232 243 233 242 240 212 226
166 180 182 185 191 198 203 204 206 207 218 225 211 221 226 246 245 244 235 245 240 238 243 241 235 237 236 233 235 221 222 247
202 182 178 176 176 180 185 185 188 191 198 208 215 226 222 230 238 238 246 245 241 240 239 233 229 239 231 225 229 230 258 290
221 195 175 167 165 163 163 163 166 171 178 183 189 220 227 231 236 238 241 245 242 234 232 236 238 238 229 238 242 270 278 283
217 203 183 173 163 159 159 155 156 154 156 164 169 172 162 185 220 235 226 226 233 239 240 239 243 245 253 263 274 247 271 295
193 182 175 168 163 158 153 149 151 148 148 151 153 155 163 170 175 199 203 225 234 253 273 268 275 267 265 280 254 259 284 292
166 162 161 156 155 147 145 140 137 138 134 134 147 155 164 171 175 180 177 172 187 198 265 279 271 260 270 276 276 284 287 290
157 152 146 143 141 138 133 133 131 131 132 134 139 144 147 143 139 133 124 124 155 219 226 213 238 269 278 286 285 285 287 282
Height
1508 1511 1515 1518 1521 1524 1527 1532 1536 1540 1543 1547 1549 1551 1553 1557 1558 1561 1562 1563 1563 1566 1569 1568 1569 1571 1572 1573 1573 1573 1576 1576
1508 1512 1515 1519 1522 1526 1529 1532 1534 1538 1540 1544 1547 1548 1550 1553 1555 1558 1560 1561 1559 1563 1566 1565 1566 1568 1569 1568 1569 1568 1571 1571
1506 1509 1512 1516 1519 1523 1527 1530 1533 1535 1537 1541 1543 1545 1547 1549 1551 1552 1553 1555 1558 1558 1561 1561 1562 1565 1565 1563 1564 1566 1568 1568
1500 1504 1507 1511 1515 1519 1523 1527 1530 1532 1535 1538 1540 1542 1545 1546 1548 1548 1549 1552 1554 1553 1556 1557 1558 1560 1559 1558 1560 1562 1564 1564
1494 1498 1502 1506 1510 1515 1518 1522 1525 1527 1531 1533 1536 1539 1540 1541 1543 1543 1545 1546 1547 1550 1551 1551 1553 1555 1556 1555 1556 1558 1559 1560
1486 1491 1496 1501 1506 1509 1513 1516 1520 1523 1525 1528 1531 1534 1537 1539 1540 1540 1540 1542 1543 1544 1545 1546 1547 1550 1551 1552 1553 1553 1554 1555
1480 1485 1491 1495 1500 1503 1507 1511 1514 1517 1521 1525 1527 1529 1533 1536 1533 1533 1536 1538 1537 1538 1540 1540 1541 1543 1545 1546 1547 1547 1548 1550
1473 1478 1483 1488 1493 1497 1501 1504 1506 1510 1515 1517 1520 1523 1520 1522 1523 1524 1530 1531 1532 1533 1534 1534 1535 1537 1540 1540 1541 1543 1544 1545
1467 1470 1475 1480 1486 1491 1494 1497 1500 1505 1508 1510 1515 1517 1513 1514 1513 1517 1522 1522 1524 1528 1529 1529 1530 1532 1534 1535 1536 1538 1540 1540
1459 1464 1468 1473 1478 1483 1487 1492 1496 1499 1501 1506 1502 1514 1513 1509 1510 1513 1514 1516 1519 1521 1523 1524 1526 1527 1529 1530 1533 1534 1534 1535
1455 1458 1462 1466 1472 1476 1481 1486 1489 1492 1492 1497 1502 1506 1505 1503 1505 1507 1508 1511 1512 1515 1518 1520 1521 1523 1524 1525 1527 1529 1530 1531
1456 1458 1461 1463 1467 1471 1476 1480 1484 1485 1486 1490 1495 1497 1498 1499 1501 1503 1505 1506 1508 1510 1513 1514 1515 1515 1518 1521 1524 1524 1523 1524
1456 1458 1459 1461 1464 1468 1471 1475 1479 1482 1483 1487 1490 1493 1496 1496 1498 1499 1501 1503 1504 1506 1507 1508 1510 1510 1512 1517 1519 1518 1518 1523
1455 1457 1459 1461 1463 1466 1469 1473 1476 1480 1484 1485 1487 1489 1490 1491 1493 1496 1498 1499 1500 1501 1503 1504 1504 1506 1509 1512 1512 1512 1514 1517
1453 1456 1458 1461 1464 1466 1468 1471 1474 1477 1480 1484 1485 1485 1486 1488 1490 1492 1493 1495 1496 1496 1498 1499 1500 1503 1506 1506 1508 1511 1511 1512
1451 1454 1457 1459 1462 1465 1467 1468 1471 1474 1479 1481 1480 1483 1485 1487 1488 1488 1489 1491 1492 1494 1495 1496 1498 1499 1503 1506 1506 1507 1508 1506
1450 1452 1455 1458 1460 1462 1464 1466 1469 1473 1474 1476 1478 1480 1481 1483 1485 1486 1488 1489 1490 1492 1494 1496 1498 1500 1502 1503 1504 1503 1502 1501
1449 1452 1455 1458 1460 1462 1464 1466 1468 1471 1471 1473 1475 1477 1478 1480 1482 1483 1485 1487 1489 1490 1492 1494 1495 1497 1497 1498 1499 1498 1496 1495
1448 1450 1452 1455 1458 1460 1462 1464 1466 1468 1470 1471 1473 1474 1476 1478 1480 1481 1483 1484 1485 1487 1488 1490 1492 1493 1493 1494 1493 1491 1489 1489